This is the latest recevied weather packets stored in our database for station/object W8UFO-13. If no packets are shown the sender has not sent any weather packets the latest 10 day(s).
| Time | Temp. | Humidity | Pressure | Rain* | Wind** | Luminosity | Snow |
|---|---|---|---|---|---|---|---|
| 1778072657 | 17.78° C | 94% | 1013.7 hPa | 6.6 mm | - | - | - |
| 1778072357 | 17.78° C | 94% | 1013.7 hPa | 5.84 mm | - | - | - |
| 1778072057 | 17.78° C | 94% | 1014.1 hPa | 5.08 mm | - | - | - |
| 1778071757 | 17.78° C | 94% | 1013.9 hPa | 5.33 mm | - | - | - |
| 1778071457 | 17.78° C | 93% | 1013.7 hPa | 5.59 mm | - | - | - |
| 1778071157 | 17.78° C | 93% | 1013.6 hPa | 4.83 mm | - | - | - |
| 1778070857 | 17.78° C | 93% | 1013.4 hPa | 4.06 mm | - | - | - |
| 1778070557 | 17.78° C | 93% | 1013.4 hPa | 3.81 mm | - | - | - |
| 1778070257 | 17.78° C | 92% | 1013.4 hPa | 3.3 mm | - | - | - |
| 1778069957 | 18.33° C | 91% | 1013.3 hPa | 3.05 mm | - | - | - |
| 1778069657 | 18.33° C | 91% | 1013.5 hPa | 2.79 mm | - | - | - |
| 1778069357 | 18.33° C | 91% | 1013.5 hPa | 2.54 mm | - | - | - |
| 1778069057 | 18.33° C | 90% | 1013.5 hPa | 2.03 mm | - | - | - |
| 1778068757 | 18.33° C | 89% | 1013.4 hPa | 2.29 mm | - | - | - |
| 1778068457 | 18.89° C | 88% | 1013.2 hPa | 2.03 mm | - | - | - |
| 1778068157 | 18.89° C | 87% | 1013.2 hPa | 1.52 mm | - | - | - |
| 1778067857 | 18.89° C | 86% | 1013.1 hPa | 0.76 mm | - | - | - |
| 1778067557 | 19.44° C | 85% | 1013 hPa | 0.51 mm | - | - | - |
| 1778067257 | 19.44° C | 85% | 1012.8 hPa | 0.51 mm | - | - | - |
| 1778066957 | 19.44° C | 85% | 1012.8 hPa | 0.25 mm | - | - | - |
| 1778066657 | 19.44° C | 84% | 1012.6 hPa | 0.25 mm | - | - | - |
| 1778066356 | 19.44° C | 84% | 1012.5 hPa | 0.25 mm | - | - | - |
| 1778066056 | 19.44° C | 83% | 1012.4 hPa | 0.25 mm | - | - | - |
| 1778065756 | 19.44° C | 82% | 1012.4 hPa | 0.25 mm | - | - | - |
| 1778065457 | 20° C | 81% | 1012.5 hPa | 0.25 mm | - | - | - |
* Rain latest hour (hover to see other rain measurements)
** Current wind speed in m/s (hover to see current wind gust speed)